www.pogodaiklimat.ru

Погода и климат >> Архив погоды >> Канада >> Timmins


ПОГОДА в Timmins

  • Прогноз погоды в Timmins
  • Монитор погоды в Timmins
  • Климат города

АРХИВ ПОГОДЫ в Timmins

Время (UTC), дата Ветер
(напр.,м/с)
 
Видим.   Явления Облачность Т
(С)
Тd
(С)
f
(%)
Тe
(С)
Тes
(С)
Комфортность P
(гПа)
Po
(гПа)
Тmin
(С)
Tmax
(С)
R
(мм)
R24
(мм)
S
(см)
00 14.01 В 3 24 км слабый снег 6/6 1000 м
[Sc]
-26.8 -29.6 77 -35 -35 опасность
обморожения
1033.7 993.8 -34.6 -21.9
03 14.01 В 3 24 км 9/9 1000 м
[]
-26.5 -29.2 78 -35 -35 опасность
обморожения
1033.7 994.0
06 14.01 ЮВ 3 24 км ледяные иглы {снег} 6/6 1000 м
[Sc]
-29.2 -32.2 75 -38 -38 опасность
обморожения
1033.9 994.3 -34.6 -21.9
09 14.01 В 3 24 км 10/10 600 м
[]
-27.5 -30.5 75 -37 -37 опасность
обморожения
1034.6 995.2
12 14.01 ЮВ 4 24 км ледяные иглы {снег} 10/10 600 м
[Sc]
-24.9 -27.7 77 -35 -35 опасность
обморожения
1034.9 995.4 -31.9 -21.9
15 14.01 ЮВ 3 24 км 9/9 600 м
[]
-23.8 -26.6 78 -32 -32 опасность
обморожения
1035.6 996.1
18 14.01 Ю 7 24 км {снег} 5/4 1000 м
[Sc Ci fib]
-14.0 -18.3 70 -24 -23 1033.2 994.2 -31.9 -14.0
21 14.01 Ю 7 24 км 8/8 100 м
[]
-12.2 -15.3 78 -21 -21 1033.1 994.2
00 15.01 В 5 24 км слабый снег 3/3 600 м
[Sc]
-17.4 -19.2 86 -27 -27 1034.3 995.3 -31.9 -11.6
03 15.01 В 4 16 км 10/10 600 м
[]
-15.2 -17.1 85 -23 -23 1035.1 996.2
06 15.01 В 6 16 км слабый снег 10/10 1000 м
[Sc]
-13.5 -15.7 83 -22 -22 1035.1 996.7 -31.9 -11.6 21
09 15.01 В 7 16 км 10/10 1000 м
[]
-13.8 -15.8 85 -24 -24 1035.7 997.4
12 15.01 В 6 16 км слабый снег 10/10 1000 м
[Sc]
-12.6 -14.7 84 -22 -22 1036.6 998.1 -17.7 -11.6
15 15.01 В 7 24 км 8/8 1500 м
[]
-11.7 -14.6 79 -21 -21 1037.8 999.4
18 15.01 ЮВ 6 24 км {снег} 9/0 600 м
[Ac und Ci sp]
-9.7 -13.8 72 -18 -18 1036.7 998.5 -17.7 -9.7
21 15.01 В 6 24 км 9/9 300 м
[]
-10.2 -13.7 75 -19 -19 1036.2 997.9
00 16.01 В 6 24 км {снег} 10/3 600 м
[Sc Ac trans]
-12.3 -14.6 83 -21 -21 1035.6 997.3 -13.9 -9.2
03 16.01 В 6 16 км 10/0
[]
-14.3 -16.5 83 -24 -24 1035.0 996.7
06 16.01 СВ 4 16 км 10/0 2000 м
[Ac trans Ci]
-15.7 -17.5 86 -24 -24 1033.2 995.0 -16.2 -9.2 20
09 16.01 СВ 4 16 км 8/0
[]
-17.0 -18.8 86 -25 -25 1032.7 994.4
12 16.01 СВ 3 24 км слабый снег 6/1 300 м
[Sc Ac As Ci fib]
-19.5 -21.7 83 -26 -26 1032.5 994.0 -19.8 -9.2
15 16.01 В 2 24 км 4/4 200 м
[]
-19.0 -21.1 83 -25 -24 1032.9 994.3
18 16.01 СВ 3 24 км ледяные иглы 3/3 200 м
[Frnb]
-12.8 -17.3 69 -18 -17 1030.7 992.4 -21.4 -12.8
21 16.01 СВ 1 24 км 4/4 600 м
[]
-11.7 -16.5 67 -14 -14 1029.3 991.1
00 17.01 ЮВ 3 24 км {снег} 3/3 600 м
[Sc]
-19.5 -21.1 87 -26 -26 1029.1 990.4 -21.4 -11.4
03 17.01 Ю 5 16 км ясно -19.2 -21.2 84 -29 -29 1026.5 988.0
06 17.01 Ю 6 16 км 5/1 600 м
[St Ac trans]
-17.0 -19.2 83 -27 -27 1022.3 984.3 -21.9 -11.4
09 17.01 Ю 6 6000 м 10/10 600 м
[]
-12.6 -14.8 84 -22 -22 1017.9 980.3
12 17.01 Ю 6 8000 м слабый снег 10/3 600 м
[Sc Ac As]
-9.7 -12.5 80 -18 -18 1014.1 976.4 -21.9 -11.4
15 17.01 Ю 6 24 км 10/10 600 м
[]
-7.9 -10.9 79 -16 -16 1011.8 974.3
18 17.01 Ю 5 3200 м слабый снег 10/10 600 м
[Frnb]
-7.4 -10.5 78 -15 -15 1009.1 971.8 -21.9 -7.4
21 17.01 Ю 4 3200 м 10/10 300 м
[]
-6.1 -8.8 81 -13 -13 1007.7 970.7
00 18.01 Ю 3 9000 м слабый снег 10/10 300 м
[Frnb]
-6.0 -8.5 82 -12 -12 1007.8 971.0 -17.1 -6.0
03 18.01 СЗ 2 16 км 10/10 300 м
[]
-5.8 -7.7 86 -10 -10 1008.1 971.3
06 18.01 СВ 5 9000 м слабый снег 10/10 300 м
[Sc]
-8.3 -10.4 85 -16 -16 1008.3 971.4 -17.1 -5.6 12
09 18.01 В 5 9000 м 10/10 300 м
[]
-9.5 -11.8 83 -17 -17 1009.2 972.3
12 18.01 В 4 9000 м слабый снег 10/10 300 м
[Sc]
-10.1 -12.5 83 -17 -17 1009.8 972.9 -10.1 -5.6
15 18.01 В 3 3200 м 10/10 100 м
[]
-10.1 -11.5 89 -16 -16 1010.1 973.2
18 18.01 В 3 3200 м слабый снег 10/10 100 м
[Frnb]
-9.0 -10.7 87 -14 -14 1009.5 972.5 -10.4 -8.3
21 18.01 В 5 16 км 9/9 200 м
[]
-8.4 -10.0 88 -16 -16 1008.3 971.3
00 19.01 В 5 16 км слабый снег 10/10 200 м
[Sc]
-8.6 -9.8 91 -16 -16 1009.2 972.2 -10.4 -8.0
03 19.01 В 2 9000 м 10/10 200 м
[]
-8.4 -9.4 92 -13 -13 1008.0 971.0
06 19.01 В 2 16 км слабый снег {морось} 10/10 100 м
[Sc]
-7.9 -8.9 93 -13 -13 1006.8 969.9 -10.4 -7.9
09 19.01 С 1 3200 м н/о -7.3 -8.0 95 -8 -8 1005.8 969.0
12 19.01 ЮВ 1 2400 м слабый дождь со снегом н/о -5.8 -6.6 94 -8 -8 1004.8 968.1 -8.7 -7.9
15 19.01 Ю 3 2400 м н/о -2.9 -3.5 96 -8 -8 1002.8 966.3
18 19.01 Ю 5 8000 м слабый снег {морось} 10/10 100 м
[Sc]
-1.0 -2.1 92 -8 -8 998.3 962.1 -9.0 -1.0
21 19.01 Ю 6 24 км 10/10 300 м
[]
+0.6 -2.7 79 -6 -6 994.9 958.9
00 20.01 Ю 5 24 км {снег} 10/1 300 м
[Sc Ac As]
+0.7 -2.6 79 -5 -5 993.2 957.3 -7.9 +1.0
03 20.01 ЮЗ 5 4800 м 10/10 200 м
[]
+0.1 -1.3 90 -6 -6 991.1 955.4
06 20.01 ЮЗ 5 12 км слабый снег {дождь} 10/10 200 м
[Sc]
+0.5 -1.0 90 -5 -5 990.2 954.6 -7.9 +1.0 20
09 20.01 З 5 16 км 10/10 200 м
[]
+1.1 -0.2 91 -5 -5 993.0 957.4
12 20.01 СЗ 7 16 км слабый снег {морось} 10/10 100 м
[Sc]
-4.7 -6.9 85 -13 -13 1000.2 964.1 -4.7 +1.0
15 20.01 СЗ 5 16 км 9/9 300 м
[]
-11.2 -14.2 78 -19 -19 1007.3 970.7
18 20.01 СЗ 4 16 км слабый снег 9/9 300 м
[Sc]
-11.1 -14.7 75 -18 -18 1010.5 973.8 -11.5 +1.2
21 20.01 СЗ 3 24 км 8/8 300 м
[]
-10.6 -14.6 72 -17 -16 1013.2 976.4

 

Местоположение метеостанции Timmins (Канада): широта 48.57 долгота -81.36 высота над уровнем моря 295 м.

В архиве по умолчанию представлена погода в Timmins за последнюю неделю. Архивные данные за месяц целиком и за предыдущие месяцы, начиная с января 2011 года, Вы можете получить, выбрав интересующий диапазон дат из раскрывающегося списка и нажав кнопку "Ввод!".

Внимание! Время в таблицах - всемирное. Для получения местного времени необходимо прибавить поправку, которая в Timmins равна -5 ч.

Смотрите также архив погоды в соседних городах и на ближайших метеорологических станциях:

Погода в Timmins Climate (Канада) (3 км)
Погода в Kirkland Lake (Канада) (111 км)
Погода в Kapuskasing (Канада) (122 км)
Погода в Kapuskasing (Канада) (122 км)
Погода в Kapuskasing Airport (Канада) (124 км)
Погода в Earlton (Канада) (148 км)
Погода в Earlton Climate (Канада) (151 км)
Погода в Chapleau A (Канада) (169 км)
Погода в Rouyn (Канада) (176 км)
Погода в Barrage Angliers (Канада) (195 км)

Пояснения к столбцам:

Ветер - указаны скорость ветра в м/с - средняя за 10 мин, порывы в срок и между сроками (в фигурных скобках) и направление, откуда дует ветер: С - северный, СВ - северо-восточный, В - восточный, ЮВ - юго-восточный, Ю - южный, ЮЗ - юго-западный, З - западный, СЗ - северо-западный.
Видимость - горизонтальная дальность видимости в метрах или километрах. При видимости от 1 до 10 км при отсутствии осадков обычно наблюдается дымка, при ухудшении видимости до 1 км и менее - туман. В сухую погоду видимость может ухудшаться дымом, пылью или мглою.
Явления - указаны атмосферные явления, наблюдавшиеся в срок или в последний час перед сроком; фигурными скобками обозначены явления, наблюдавшиеся между сроками (за 1-3 часа до срока); квадратными скобками обозначены град или гололедные отложения с указанием их диаметра в мм.
Облачность - указаны через наклонную черту общая и нижняя облачность в баллах и высота нижней границы облаков в метрах; квадратными скобками обозначены формы облаков: Ci - перистые, Cs - перисто-слоистые, Cc - перисто-кучевые, Ac - высококучевые, As - высокослоистые, Sc - слоисто-кучевые, Ns - слоисто-дождевые, Cu - кучевые, Cb - кучево-дождевые. Подробнее классификацию облаков см. в Атласе облаков (PDF).
T - Температура воздуха - температура, измеренная на высоте 2 м над землей.
Td - Температура точки росы - температура, при понижении до которой содержащийся в воздухе водяной пар достигнет насыщения.
f - Относительная влажность воздуха - влажноcть воздуха, измеренная на высоте 2 м над землей.
Te - Эффективная температура - температура, которую ощущает одетый по сезону человек в тени. Характеристика душности погоды. При расчете учитывается влияние влажности воздуха и скорости ветра на теплоощущения человека.
Tes - Эффективная температура на солнце - температура, которую ощущает человек, с поправкой на солнечный нагрев. Характеристика знойности погоды. Зависит от высоты солнца над горизонтом, облачности и скорости ветра. Ночью, в пасмурную погоду, а также при ветре 12 м/с и более поправка равна нулю.
P - Атмосферное давление - приведенное к уровню моря атмосферное давление.
Po - Атмосферное давление - измеренное на уровне метеостанции атмосферное давление.
Tmin - Минимальная температура - минимум температуры воздуха на высоте 2 м над землей.
Tmax - Максимальная температура - максимум температуры воздуха на высоте 2 м над землей.
R - Количество осадков - Количество выпавших осадков за период времени, мм. При наведении курсора мыши на число - период времени, за который выпало указанное количество осадков.
R24 - Количество осадков - Количество выпавших осадков за 24 часа, мм.
S - Снежный покров - Высота снежного покрова, см. При наведении курсора мыши на число - состояние снежного покрова и степень покрытия местности в баллах.